User: anonymous   Login
Location: UBC Liquid-Mirror Observatory
(49.2876°N, 122.5728°W)
Time: 11:36:02
(UTC-07:00)
Language:

Cosmos 1743 Rocket - Orbit

View from above orbital plane
View from above orbital plane
View from above satellite
View from above satellite

Ground track
Ground track

The orbit data is extracted from the following two-line orbital elements,

1 16720U 86034B   15116.47481277  .00000666  00000-0  78681-4 0  9993
2 16720 082.5540 251.1066 0020881 159.5489 267.9502 14.83052818563244
Epoch (UTC): 26 April 2015 11:23:43
Eccentricity: 0.0020881
inclination: 82.5540°
perigee height: 605 km
apogee height: 634 km
right ascension of ascending node: 251.1066°
argument of perigee: 159.5489°
revolutions per day: 14.83052818
mean anomaly at epoch: 267.9502°
orbit number at epoch: 56324

The dashed part of the orbit path shows where the satellite is in the earth's shadow,  

DLR